Location: Boitzum
(52.1496°N, 9.6943°E)
Time: 00:01:50
(UTC+00:00)

Cosmos 44 - Pass Details

Date: 13 January 2026
Orbit: 570 x 780 km, 65.1° (Epoch: 9 February)

Event Time Altitude Azimuth Distance (km) Brightness Sun altitude
Exits shadow 06:10:11 13° 310° (NW) 2,116 5.2 -10.9°
Maximum altitude 06:14:51 54° 236° (SW) 936 3.8 -10.2°
Drops below altitude 10° 06:20:05 10° 160° (SSE) 2,327 6.7 -9.5°
Sets 06:22:32 0° 156° (SSE) 3,247 7.6 -9.1°
